Weather reports worldwide

Advertisment
Garmisch-Partenkirchen, Germany (10963): temperature & dewpoint: 03.12.2019 21:00:00 - 09.12.2019 21:00:00 (CET)Garmisch-Partenkirchen, Germany (10963): temperature 5cm & temperature -5cm: 03.12.2019 21:00:00 - 09.12.2019 21:00:00 (CET)Garmisch-Partenkirchen, Germany (10963): temperature -20cm & temperature -100cm: 03.12.2019 21:00:00 - 09.12.2019 21:00:00 (CET)Garmisch-Partenkirchen, Germany (10963): wind speed & gusts: 03.12.2019 21:00:00 - 09.12.2019 21:00:00 (CET)Garmisch-Partenkirchen, Germany (10963): wind direction: 03.12.2019 21:00:00 - 09.12.2019 21:00:00 (CET)Garmisch-Partenkirchen, Germany (10963): reduced air pressure: 03.12.2019 21:00:00 - 09.12.2019 21:00:00 (CET)Garmisch-Partenkirchen, Germany (10963): visibility: 03.12.2019 21:00:00 - 09.12.2019 21:00:00 (CET)Garmisch-Partenkirchen, Germany (10963): sunshine duration: 03.12.2019 21:00:00 - 09.12.2019 21:00:00 (CET)Garmisch-Partenkirchen, Germany (10963): precipitation: 03.12.2019 21:00:00 - 09.12.2019 21:00:00 (CET)
Date & Time tt [°C] td [°C] tt 5cm [°C] tt -5cm [°C] tt -20cm [°C] tt -100cm [°C] ff [km/h] ff [kn] fx [km/h] fx [kn] dd ppp [hPa] vv [km] sd [min] rr [mm]
09.12.2019 21:00:00 2,3 2,0 1,1 0,0 0,0 5,8 4 2 7 4 NE 1012,4 9 0 1,1
09.12.2019 20:00:00 1,7 1,2 0,7 0,0 0,0 5,8 3 2 8 4 W 1010,9 33 0 0,0
09.12.2019 19:00:00 1,6 1,1 0,1 0,0 0,0 5,8 3 2 9 5 W 1010,0 50 0 0,0
09.12.2019 18:00:00 2,4 1,7 -0,5 0,0 -0,1 5,8 4 2 13 7 ESE 1009,2 53 0 0,0
09.12.2019 17:00:00 3,5 2,3 -0,1 0,0 -0,1 5,8 3 2 36 19 SW 1008,5 74 0 0,4
09.12.2019 16:00:00 4,7 2,0 3,1 0,0 -0,1 5,8 3 2 10 5 W 1007,0 60 0 0,0
09.12.2019 15:00:00 5,4 1,8 4,0 0,0 -0,1 5,8 2 1 10 5 SSW 1005,7 71 0 0,0
09.12.2019 14:00:00 6,3 1,3 4,2 -0,1 -0,1 5,8 6 3 16 9 SW 1005,4 75 50 0,0
09.12.2019 13:00:00 8,1 1,9 6,3 -0,1 -0,1 5,8 6 3 13 7 NE 1005,4 69 40 0,0
09.12.2019 12:00:00 5,9 2,2 3,7 -0,1 -0,1 5,8 5 3 9 5 SSW 1006,8 75 43 0,0
09.12.2019 11:00:00 3,3 2,6 2,3 -0,1 -0,1 5,8 2 1 8 4 N 1008,3 49 6 0,0
09.12.2019 10:00:00 2,0 1,7 1,3 -0,2 -0,1 5,8 5 3 8 5 WSW 1009,5 28 0 0,0
09.12.2019 09:00:00 1,4 1,0 -0,1 -0,2 -0,1 5,8 2 1 10 5 W 1009,4 31 0 0,0
09.12.2019 08:00:00 1,6 1,4 0,3 -0,2 -0,1 5,8 5 3 11 6 SW 1009,4 42 0 0,0
09.12.2019 07:00:00 1,9 1,6 0,6 -0,2 -0,1 5,9 3 2 14 7 N 1009,8 56 0 0,3
09.12.2019 06:00:00 1,5 0,8 0,7 -0,4 -0,1 5,9 5 3 11 6 WSW 1010,1 34 0 0,5
09.12.2019 05:00:00 1,2 -0,4 0,2 -0,6 -0,1 5,9 3 2 13 7 W 1009,6 56 0 0,0
09.12.2019 04:00:00 0,6 -0,9 -0,6 -0,7 -0,1 5,9 5 3 11 6 SSW 1009,9 68 0 0,0
09.12.2019 03:00:00 0,8 -0,5 -0,6 -0,6 -0,1 5,9 4 2 10 5 SW 1010,5 68 0 0,0
09.12.2019 02:00:00 1,6 -0,1 -0,6 -0,5 -0,1 5,9 4 2 16 9 NE 1009,8 75 0 0,0
09.12.2019 01:00:00 1,7 -0,7 0,3 -0,5 -0,1 5,9 3 2 10 6 S 1010,0 67 0 0,0
09.12.2019 00:00:00 1,3 -0,6 0,0 -0,6 -0,1 5,9 5 3 9 5 WSW 1009,7 68 0 0,0
08.12.2019 23:00:00 1,1 -1,0 0,1 -0,7 -0,1 5,9 5 3 11 6 S 1010,4 58 0 0,0
08.12.2019 22:00:00 0,5 -0,9 -0,4 -0,8 -0,1 5,9 5 3 10 5 WSW 1010,8 41 0 0,0
08.12.2019 21:00:00 -0,2 -1,7 -0,9 -1,0 -0,1 5,9 4 2 10 5 SW 1012,1 41 0 0,0
08.12.2019 20:00:00 -1,2 -2,3 -3,4 -0,8 -0,1 5,9 3 2 10 5 SW 1013,3 34 0 0,0
08.12.2019 19:00:00 -1,0 -2,2 -2,6 -0,4 -0,1 5,9 6 3 11 6 SSW 1013,9 28 0 0,0
08.12.2019 18:00:00 -0,5 -1,9 -2,5 -0,1 -0,1 5,9 6 4 12 7 SSW 1014,2 35 0 0,0
08.12.2019 17:00:00 -0,2 -1,4 -2,0 -0,1 -0,1 6,0 6 3 11 6 SSW 1014,5 31 0 0,0
08.12.2019 16:00:00 1,3 -1,0 -0,8 -0,2 -0,2 6,0 4 2 10 5 WSW 1014,2 48 0 0,0
08.12.2019 15:00:00 2,4 -0,6 0,6 -0,2 -0,2 6,0 3 2 9 5 WSW 1014,0 29 14 0,0
08.12.2019 14:00:00 4,1 -0,8 1,6 -0,3 -0,2 6,0 6 3 8 5 SSW 1014,1 53 60 0,0
08.12.2019 13:00:00 5,6 -0,9 3,4 -0,5 -0,2 6,0 2 1 8 4 SW 1014,7 60 60 0,0
08.12.2019 12:00:00 3,6 -0,8 2,7 -0,9 -0,3 6,0 6 3 12 6 S 1015,9 75 60 0,0
08.12.2019 11:00:00 0,9 -0,6 0,0 -1,7 -0,3 6,0 2 1 7 4 SSW 1017,9 37 60 0,0
08.12.2019 10:00:00 -1,7 -2,3 -3,1 -2,5 -0,3 6,0 5 3 8 5 SW 1019,0 34 4 0,0
08.12.2019 09:00:00 -2,8 -3,6 -4,8 -2,8 -0,2 6,0 3 2 10 5 WSW 1019,9 52 0 0,0
08.12.2019 08:00:00 -3,3 -4,0 -5,9 -2,8 -0,2 6,0 6 3 10 5 SW 1020,4 57 0 0,0
08.12.2019 07:00:00 -3,0 -3,5 -6,0 -2,4 -0,1 6,0 4 2 9 5 SW 1020,7 62 0 0,0
08.12.2019 06:00:00 -2,7 -3,2 -5,7 -2,1 -0,1 6,0 2 1 8 5 SSW 1021,3 50 0 0,0
08.12.2019 05:00:00 -2,7 -3,3 -5,8 -1,7 -0,1 6,1 4 2 8 4 WSW 1022,0 57 0 0,0
08.12.2019 04:00:00 -2,3 -2,7 -6,1 -1,3 -0,1 6,1 3 1 12 6 NNW 1022,0 50 0 0,0
08.12.2019 03:00:00 -2,0 -2,3 -3,8 -0,8 -0,1 6,1 5 3 9 5 SSW 1022,9 33 0 0,0
08.12.2019 02:00:00 -1,9 -2,1 -4,8 -0,4 -0,1 6,1 3 2 7 4 SW 1023,9 30 0 0,0
08.12.2019 01:00:00 -1,5 -1,8 -4,1 -0,1 -0,1 6,1 3 2 5 3 WSW 1023,8 26 0 0,0
08.12.2019 00:00:00 -1,2 -1,3 -4,3 0,0 -0,1 6,1 4 2 7 4 S 1023,8 12 0 0,0
07.12.2019 23:00:00 -0,6 -0,8 -2,8 0,0 -0,1 6,1 4 2 8 4 WSW 1023,7 7 0 0,0
07.12.2019 22:00:00 -0,2 -0,5 -2,1 0,0 -0,1 6,1 4 2 8 4 SW 1023,6 8 0 0,0
07.12.2019 21:00:00 0,9 0,4 -1,0 0,0 -0,2 6,1 4 2 10 5 W 1023,3 20 0 0,0
07.12.2019 20:00:00 1,1 0,6 -0,6 0,0 -0,2 6,1 3 2 7 4 NW 1022,8 20 0 0,0
07.12.2019 19:00:00 1,5 0,8 0,2 0,0 -0,2 6,1 2 1 6 3 SSW 1022,2 23 0 0,0
07.12.2019 18:00:00 1,9 1,1 -0,2 0,0 -0,2 6,1 4 2 8 5 WSW 1022,0 24 0 0,0
07.12.2019 17:00:00 3,0 1,7 1,1 -0,1 -0,2 6,2 5 3 8 4 SSW 1020,5 38 0 0,0
07.12.2019 16:00:00 5,9 2,6 3,2 -0,1 -0,2 6,2 2 1 22 12 SSW 1019,1 74 0 0,0
07.12.2019 15:00:00 7,8 2,6 5,9 -0,2 -0,3 6,2 8 4 23 13 ENE 1017,9 75 1 0,0
07.12.2019 14:00:00 6,2 2,5 4,3 -0,2 -0,3 6,2 3 2 14 8 SSE 1018,2 68 1 0,0
07.12.2019 13:00:00 6,5 2,0 5,2 -0,3 -0,3 6,2 4 2 9 5 NW 1018,4 58 17 0,0
07.12.2019 12:00:00 5,9 1,5 4,8 -0,5 -0,4 6,2 3 1 7 4 SW 1018,9 61 23 0,0
07.12.2019 11:00:00 3,1 1,0 2,2 -0,7 -0,4 6,2 3 2 9 5 SW 1019,9 48 2 0,0
07.12.2019 10:00:00 1,5 -0,3 0,0 -1,1 -0,4 6,2 3 2 10 5 WSW 1020,2 64 0 0,0
07.12.2019 09:00:00 0,5 -0,8 -0,6 -1,4 -0,5 6,2 3 2 8 4 WNW 1020,1 75 0 0,0
07.12.2019 08:00:00 0,0 -1,5 -2,0 -1,5 -0,5 6,2 5 3 9 5 SSW 1019,6 65 0 0,0
07.12.2019 07:00:00 0,0 -1,2 -1,0 -1,4 -0,5 6,3 3 2 10 5 SSW 1019,3 67 0 0,0
07.12.2019 06:00:00 0,3 -1,2 -0,8 -1,5 -0,6 6,3 3 2 10 6 SE 1018,9 70 0 0,0
07.12.2019 05:00:00 -0,2 -1,5 -1,0 -1,7 -0,7 6,3 3 2 10 5 NW 1019,0 72 0 0,0
07.12.2019 04:00:00 -0,6 -1,8 -1,2 -2,1 -0,7 6,3 3 2 9 5 SW 1019,2 75 0 0,0
07.12.2019 03:00:00 -1,1 -2,5 -1,7 -2,6 -0,8 6,3 5 3 9 5 SW 1019,4 72 0 0,0
07.12.2019 02:00:00 -2,0 -3,1 -2,4 -3,2 -0,8 6,3 3 2 13 7 SSW 1019,8 57 0 0,0
07.12.2019 01:00:00 -3,3 -4,2 -5,1 -3,6 -0,8 6,3 5 3 9 5 WSW 1020,6 46 0 0,0
07.12.2019 00:00:00 -3,9 -4,8 -6,6 -3,8 -0,7 6,3 3 2 10 6 W 1021,5 37 0 0,0
06.12.2019 23:00:00 -4,3 -5,2 -7,7 -3,7 -0,7 6,3 5 3 9 5 SW 1021,6 34 0 0,0
06.12.2019 22:00:00 -4,1 -4,6 -7,1 -3,6 -0,6 6,3 5 3 8 4 WSW 1022,0 26 0 0,0
06.12.2019 21:00:00 -3,7 -4,6 -7,2 -3,3 -0,5 6,4 3 2 10 6 W 1022,0 29 0 0,0
06.12.2019 20:00:00 -3,7 -4,5 -7,3 -3,1 -0,4 6,4 5 3 9 5 SSW 1022,3 22 0 0,0
06.12.2019 19:00:00 -3,8 -4,6 -6,9 -2,7 -0,4 6,4 4 2 9 5 SSW 1022,2 22 0 0,0
06.12.2019 18:00:00 -3,0 -3,9 -6,5 -2,3 -0,3 6,4 3 2 7 4 SW 1022,0 24 0 0,0
06.12.2019 17:00:00 -2,5 -3,5 -5,4 -1,7 -0,3 6,4 4 2 5 3 SW 1021,7 27 0 0,0
06.12.2019 16:00:00 -1,7 -3,4 -4,1 -1,1 -0,4 6,4 4 2 8 4 SSW 1021,2 40 0 0,0
06.12.2019 15:00:00 -1,1 -3,3 -3,4 -0,7 -0,4 6,4 4 2 9 5 SW 1021,1 31 17 0,0
06.12.2019 14:00:00 2,3 -1,9 -0,6 -0,7 -0,5 6,4 4 2 9 5 SW 1020,4 37 60 0,0
06.12.2019 13:00:00 4,3 -2,0 1,3 -1,2 -0,6 6,4 3 2 9 5 SW 1020,5 75 60 0,0
06.12.2019 12:00:00 2,8 -2,0 0,2 -2,2 -0,7 6,4 6 3 9 5 SSW 1021,8 53 60 0,0
06.12.2019 11:00:00 -1,2 -2,6 -2,2 -3,4 -0,8 6,4 4 2 8 5 SW 1024,2 61 60 0,0
06.12.2019 10:00:00 -4,4 -5,4 -6,3 -4,2 -0,7 6,5 4 2 8 4 SW 1025,7 36 9 0,0
06.12.2019 09:00:00 -5,0 -5,9 -7,9 -4,4 -0,7 6,5 5 3 8 4 SW 1025,9 38 0 0,0
06.12.2019 08:00:00 -5,5 -6,2 -8,8 -4,4 -0,6 6,5 4 2 7 4 SW 1026,2 37 0 0,0
06.12.2019 07:00:00 -5,4 -6,3 -9,1 -4,3 -0,6 6,5 3 2 7 4 W 1026,1 71 0 0,0
06.12.2019 06:00:00 -5,2 -6,1 -8,8 -4,2 -0,5 6,5 3 2 8 4 SW 1025,9 69 0 0,0
06.12.2019 05:00:00 -5,4 -6,2 -9,0 -4,1 -0,5 6,5 4 2 7 4 SSW 1026,0 75 0 0,0
06.12.2019 04:00:00 -5,1 -5,8 -8,7 -4,0 -0,4 6,5 4 2 7 4 SW 1026,1 60 0 0,0
06.12.2019 03:00:00 -4,8 -5,6 -7,9 -3,8 -0,4 6,5 5 3 9 5 SW 1025,8 50 0 0,0
06.12.2019 02:00:00 -4,7 -5,4 -8,4 -3,7 -0,3 6,5 3 2 7 4 SW 1025,7 46 0 0,0
06.12.2019 01:00:00 -4,8 -5,6 -8,1 -3,6 -0,2 6,5 4 2 7 4 WSW 1026,0 29 0 0,0
06.12.2019 00:00:00 -4,5 -5,4 -8,0 -3,4 -0,2 6,5 4 2 6 4 SW 1026,5 37 0 0,0
05.12.2019 23:00:00 -4,0 -4,7 -7,5 -3,2 -0,1 6,6 4 2 10 5 WSW 1026,6 31 0 0,0
05.12.2019 22:00:00 -3,8 -4,4 -7,5 -3,0 -0,1 6,6 5 3 8 5 SW 1026,8 23 0 0,0
05.12.2019 21:00:00 -3,2 -3,7 -6,7 -2,7 0,0 6,6 5 3 10 5 WSW 1026,9 25 0 0,0
05.12.2019 20:00:00 -3,4 -3,9 -6,4 -2,4 0,0 6,6 4 2 6 3 SW 1026,7 14 0 0,0
05.12.2019 19:00:00 -3,4 -4,1 -6,4 -2,1 0,0 6,6 4 2 8 4 SSW 1026,5 16 0 0,0
05.12.2019 18:00:00 -2,1 -2,7 -5,5 -1,6 0,0 6,6 4 2 8 4 WSW 1025,6 21 0 0,0
05.12.2019 17:00:00 -1,8 -2,3 -4,7 -1,0 0,0 6,6 3 2 7 4 SW 1025,1 27 0 0,0
05.12.2019 16:00:00 -1,4 -2,2 -3,7 -0,5 0,0 6,6 4 2 8 4 SW 1024,6 29 0 0,0
05.12.2019 15:00:00 -0,8 -2,3 -2,6 -0,4 -0,1 6,6 4 2 8 4 SW 1024,3 38 16 0,0
05.12.2019 14:00:00 2,7 -0,7 -0,3 -0,5 -0,1 6,6 5 3 9 5 SW 1022,8 59 60 0,0
05.12.2019 13:00:00 4,0 -0,7 2,0 -0,8 -0,1 6,6 6 3 9 5 SSW 1022,3 66 60 0,0
05.12.2019 12:00:00 2,7 -1,0 0,7 -1,5 -0,2 6,6 4 2 10 5 SSW 1023,2 70 60 0,0
05.12.2019 11:00:00 0,0 -1,3 -1,1 -2,5 -0,1 6,7 5 3 9 5 SW 1024,7 44 60 0,0
05.12.2019 10:00:00 -3,5 -4,4 -5,3 -3,2 -0,1 6,7 5 3 11 6 SSW 1026,4 26 11 0,0
05.12.2019 09:00:00 -4,4 -5,0 -7,5 -3,4 0,0 6,7 4 2 9 5 WSW 1026,4 42 0 0,0
05.12.2019 08:00:00 -4,8 -5,6 -8,0 -3,4 0,0 6,7 5 3 8 4 WSW 1026,3 49 0 0,0
05.12.2019 07:00:00 -4,8 -5,5 -7,9 -3,3 0,1 6,7 5 3 9 5 WSW 1025,9 73 0 0,0
05.12.2019 06:00:00 -4,7 -5,3 -8,3 -3,2 0,1 6,7 6 3 9 5 WSW 1025,5 69 0 0,0
05.12.2019 05:00:00 -4,8 -5,6 -7,1 -3,1 0,2 6,7 4 2 8 4 SW 1025,2 53 0 0,0
05.12.2019 04:00:00 -4,9 -5,7 -8,3 -3,0 0,2 6,7 3 2 7 4 SW 1025,1 71 0 0,0
05.12.2019 03:00:00 -5,1 -5,9 -8,0 -2,8 0,3 6,7 4 2 8 4 WSW 1025,1 48 0 0,0
05.12.2019 02:00:00 -4,9 -5,8 -8,0 -2,7 0,3 6,7 4 2 8 5 SW 1024,3 42 0 0,0
05.12.2019 01:00:00 -4,6 -5,3 -7,6 -2,6 0,4 6,8 5 3 8 4 SW 1023,7 31 0 0,0
05.12.2019 00:00:00 -4,7 -5,4 -7,6 -2,5 0,4 6,8 3 1 6 4 SW 1024,2 28 0 0,0
04.12.2019 23:00:00 -4,3 -5,0 -7,3 -2,3 0,5 6,8 4 2 7 4 SW 1023,8 27 0 0,0
04.12.2019 22:00:00 -4,1 -4,7 -7,0 -2,2 0,5 6,8 5 3 8 5 WSW 1023,7 24 0 0,0
04.12.2019 21:00:00 -3,6 -4,2 -6,6 -2,0 0,6 6,8 4 2 8 4 W 1023,4 24 0 0,0
04.12.2019 20:00:00 -3,9 -4,5 -7,0 -1,8 0,6 6,8 3 2 9 5 WSW 1023,0 15 0 0,0
04.12.2019 19:00:00 -3,7 -4,2 -6,3 -1,5 0,6 6,8 5 3 10 5 SW 1023,0 18 0 0,0
04.12.2019 18:00:00 -3,4 -4,0 -6,3 -1,1 0,6 6,8 3 2 8 4 SSW 1022,6 16 0 0,0
04.12.2019 17:00:00 -3,0 -3,7 -5,8 -0,6 0,6 6,8 3 2 6 3 SSW 1022,6 16 0 0,0
04.12.2019 16:00:00 -2,2 -3,2 -4,1 -0,2 0,6 6,8 3 2 5 3 SW 1022,7 25 0 0,0
04.12.2019 15:00:00 -1,5 -3,2 -3,3 -0,2 0,6 6,8 3 2 6 4 SW 1022,4 30 16 0,0
04.12.2019 14:00:00 2,1 -2,6 -0,3 -0,3 0,6 6,8 4 2 10 5 ESE 1021,3 36 60 0,0
04.12.2019 13:00:00 1,7 -3,6 1,0 -0,5 0,6 6,8 4 2 13 7 E 1022,1 45 60 0,0
04.12.2019 12:00:00 1,2 -2,0 0,2 -0,8 0,6 6,8 4 2 8 5 S 1022,5 55 60 0,0
04.12.2019 11:00:00 -1,5 -2,8 -1,6 -1,5 0,6 6,9 3 2 8 4 SSW 1024,2 28 60 0,0
04.12.2019 10:00:00 -4,6 -5,8 -5,0 -2,1 0,7 6,9 3 2 8 4 WSW 1025,4 43 12 0,0
04.12.2019 09:00:00 -5,8 -6,8 -8,0 -2,2 0,7 6,9 4 2 6 4 WSW 1025,9 53 0 0,0
04.12.2019 08:00:00 -6,5 -7,6 -9,0 -2,1 0,8 6,9 3 2 8 4 SW 1026,2 55 0 0,0
04.12.2019 07:00:00 -6,3 -7,2 -9,0 -2,0 0,8 6,9 4 2 7 4 SW 1025,8 50 0 0,0
04.12.2019 06:00:00 -6,5 -7,6 -9,3 -1,8 0,9 6,9 3 2 8 4 SSW 1026,0 56 0 0,0
04.12.2019 05:00:00 -6,8 -7,9 -8,8 -1,6 1,0 6,9 5 3 8 5 S 1026,7 56 0 0,0
04.12.2019 04:00:00 -6,4 -7,4 -8,6 -1,5 1,0 6,9 3 2 8 4 SSW 1027,0 44 0 0,0
04.12.2019 03:00:00 -6,6 -7,8 -8,8 -1,3 1,1 6,9 4 2 6 4 SSW 1028,1 40 0 0,0
04.12.2019 02:00:00 -6,4 -7,4 -8,5 -1,1 1,1 6,9 4 2 7 4 SW 1028,4 33 0 0,0
04.12.2019 01:00:00 -6,1 -7,1 -8,6 -0,8 1,2 6,9 3 1 6 4 WSW 1028,8 27 0 0,0
04.12.2019 00:00:00 -6,1 -6,9 -8,3 -0,6 1,3 6,9 2 1 8 4 SSW 1029,5 24 0 0,0
03.12.2019 23:00:00 -6,0 -7,0 -8,0 -0,4 1,3 7,0 5 3 8 5 WSW 1029,9 23 0 0,0
03.12.2019 22:00:00 -6,3 -7,2 -8,1 -0,2 1,4 7,0 3 1 5 3 SW 1030,6 17 0 0,0
03.12.2019 21:00:00 -5,9 -6,7 -8,1 -0,1 1,4 7,0 3 2 6 3 SW 1030,8 17 0 0,0

tt = temperature
td = dewpoint
tt 5cm = temperature 5cm
tt -5cm = temperature -5cm
tt -20cm = temperature -20cm
tt -100cm = temperature -100cm
ff = wind speed
fx = gusts
dd = wind direction
ppp = reduced air pressure
vv = visibility
sd = sunshine duration
rr = precipitation

Next stations